User: anonymous   Login
Location: STAR School
(35.3054°N, 111.2976°W)
Time: 12:01:23
(UTC-07:00)
Language:

A-11 Canister half - Orbit

View from above orbital plane
View from above orbital plane
View from above satellite
View from above satellite

Ground track
Ground track

The orbit data is extracted from the following two-line orbital elements,

1    51U 60009C   19140.90458689 -.00000096 +00000-0 -96376-4 0  9997
2    51 047.2103 124.9571 0104240 072.0868 289.1254 12.18270720616112
Epoch (UTC): 20 May 2019 21:42:36
Eccentricity: 0.0104240
inclination: 47.2103°
perigee height: 1517 km
apogee height: 1683 km
right ascension of ascending node: 124.9571°
argument of perigee: 72.0868°
revolutions per day: 12.18270720
mean anomaly at epoch: 289.1254°
orbit number at epoch: 61611

The dashed part of the orbit path shows where the satellite is in the earth's shadow,  

DLR